,,PA_Meas_PMT16A,,PR_Meas_QMR101_102,,RH_Meas_QMH101,,SR_Meas_QMS101,,TA_Meas_QMH101,,GenWind,,GenWind,
time,status,PA,status,PR,status,RH,status,SR,status,TA,status,DirAvg,status,SpdAvg,
2011-05-28, 00:00:05,VALID,916.621,VALID,0,VALID,96.9089,VALID,0,VALID,20.756,VALID,359,VALID,0.414453,
2011-05-28, 00:01:05,VALID,916.597,VALID,0,VALID,96.886,VALID,0,VALID,20.7365,VALID,359,VALID,0.397656,
2011-05-28, 00:02:05,VALID,916.628,VALID,0,VALID,96.886,VALID,0,VALID,20.7365,VALID,359,VALID,0.298047,
2011-05-28, 00:03:05,VALID,916.634,VALID,0,VALID,96.9241,VALID,0,VALID,20.717,VALID,359,VALID,0.182422,
2011-05-28, 00:04:05,VALID,916.629,VALID,0,VALID,96.9089,VALID,0,VALID,20.717,VALID,359,VALID,0.106641,
2011-05-28, 00:05:05,VALID,916.628,VALID,0,VALID,96.9012,VALID,0,VALID,20.6975,VALID,359,VALID,0.383594,
2011-05-28, 00:06:05,VALID,916.645,VALID,0,VALID,96.9089,VALID,0,VALID,20.6569,VALID,359,VALID,0.60625,
2011-05-28, 00:07:05,VALID,916.599,VALID,0,VALID,96.9089,VALID,0,VALID,20.6975,VALID,359,VALID,0.568359,
2011-05-28, 00:08:05,VALID,916.612,VALID,0,VALID,96.9394,VALID,0,VALID,20.6975,VALID,360,VALID,1.0793,
2011-05-28, 00:09:05,VALID,916.579,VALID,0,VALID,96.9241,VALID,0,VALID,20.6975,VALID,360,VALID,0.632422,
2011-05-28, 00:10:05,VALID,916.571,VALID,0,VALID,96.9241,VALID,0,VALID,20.717,VALID,1,VALID,0.321484,
2011-05-28, 00:11:05,VALID,916.588,VALID,0,VALID,96.9546,VALID,0,VALID,20.7365,VALID,360,VALID,0.273438,
2011-05-28, 00:12:05,VALID,916.577,VALID,0,VALID,96.9317,VALID,0,VALID,20.7154,VALID,360,VALID,0.01875,
2011-05-28, 00:13:05,VALID,916.583,VALID,0,VALID,96.9317,VALID,0,VALID,20.7365,VALID,360,VALID,0.14375,
2011-05-28, 00:14:05,VALID,916.602,VALID,0,VALID,96.9394,VALID,0,VALID,20.7154,VALID,360,VALID,0,
2011-05-28, 00:15:05,VALID,916.576,VALID,0,VALID,96.9546,VALID,0,VALID,20.7755,VALID,360,VALID,0,
2011-05-28, 00:16:05,VALID,916.556,VALID,0,VALID,96.9622,VALID,0,VALID,20.756,VALID,360,VALID,0.235938,
2011-05-28, 00:17:05,VALID,916.517,VALID,0,VALID,96.9775,VALID,0.107441,VALID,20.7544,VALID,1,VALID,0.895312,
2011-05-28, 00:18:05,VALID,916.492,VALID,0,VALID,96.9622,VALID,0,VALID,20.756,VALID,1,VALID,1.04648,
2011-05-28, 00:19:05,VALID,916.47,VALID,0,VALID,96.9622,VALID,0,VALID,20.7755,VALID,23,VALID,1.10469,
2011-05-28, 00:20:05,VALID,916.457,VALID,0,VALID,96.9775,VALID,0,VALID,20.756,VALID,28,VALID,0.864844,
2011-05-28, 00:21:05,VALID,916.416,VALID,0,VALID,96.9698,VALID,0,VALID,20.7365,VALID,28,VALID,1.0168,
2011-05-28, 00:22:05,VALID,916.421,VALID,0,VALID,96.9927,VALID,0,VALID,20.7154,VALID,28,VALID,1.00391,
2011-05-28, 00:23:05,VALID,916.396,VALID,0,VALID,96.9851,VALID,0,VALID,20.7154,VALID,28,VALID,0.934375,
2011-05-28, 00:24:05,VALID,916.363,VALID,0,VALID,96.9775,VALID,0,VALID,20.6959,VALID,28,VALID,1.25078,
2011-05-28, 00:25:05,VALID,916.398,VALID,0,VALID,96.9927,VALID,0,VALID,20.6959,VALID,28,VALID,1.19727,
2011-05-28, 00:26:05,VALID,916.404,VALID,0,VALID,97.0003,VALID,0,VALID,20.6975,VALID,28,VALID,0.887109,
2011-05-28, 00:27:05,VALID,916.421,VALID,0,VALID,97.0003,VALID,0,VALID,20.6975,VALID,28,VALID,0.963672,
2011-05-28, 00:28:05,VALID,916.399,VALID,0,VALID,96.9927,VALID,0,VALID,20.678,VALID,28,VALID,0.432422,
2011-05-28, 00:29:05,VALID,916.425,VALID,0,VALID,96.9851,VALID,0,VALID,20.6975,VALID,28,VALID,0.422266,
2011-05-28, 00:30:05,VALID,916.465,VALID,0,VALID,97.0003,VALID,0,VALID,20.6975,VALID,28,VALID,0.263672,
2011-05-28, 00:31:05,VALID,916.457,VALID,0,VALID,97.008,VALID,0,VALID,20.6975,VALID,28,VALID,0.0160156,
2011-05-28, 00:32:05,VALID,916.469,VALID,0,VALID,97.0003,VALID,0,VALID,20.678,VALID,28,VALID,0.414063,
2011-05-28, 00:33:05,VALID,916.453,VALID,0,VALID,97.0156,VALID,0,VALID,20.678,VALID,28,VALID,0.196484,
2011-05-28, 00:34:05,VALID,916.418,VALID,0,VALID,97.0232,VALID,0,VALID,20.6959,VALID,28,VALID,0.346484,
2011-05-28, 00:35:05,VALID,916.462,VALID,0,VALID,97.0156,VALID,0,VALID,20.6959,VALID,28,VALID,0.108984,
2011-05-28, 00:36:05,VALID,916.427,VALID,0,VALID,97.0385,VALID,0,VALID,20.756,VALID,28,VALID,0.324609,
2011-05-28, 00:37:05,VALID,916.418,VALID,0,VALID,97.0537,VALID,0,VALID,20.7349,VALID,28,VALID,0.0597656,
2011-05-28, 00:38:05,VALID,916.396,VALID,0,VALID,97.0308,VALID,0,VALID,20.756,VALID,28,VALID,0.107031,
2011-05-28, 00:39:05,VALID,916.372,VALID,0,VALID,97.0537,VALID,0,VALID,20.756,VALID,28,VALID,0.450391,
2011-05-28, 00:40:05,VALID,916.367,VALID,0,VALID,97.0461,VALID,0,VALID,20.7365,VALID,28,VALID,0.264844,
2011-05-28, 00:41:05,VALID,916.354,VALID,0,VALID,97.0385,VALID,0,VALID,20.7349,VALID,28,VALID,0.151172,
2011-05-28, 00:42:05,VALID,916.344,VALID,0,VALID,97.069,VALID,0,VALID,20.7755,VALID,28,VALID,0.321094,
2011-05-28, 00:43:05,VALID,916.316,VALID,0,VALID,97.0461,VALID,0,VALID,20.7755,VALID,28,VALID,0.550781,
2011-05-28, 00:44:05,VALID,916.305,VALID,0,VALID,97.0537,VALID,0,VALID,20.795,VALID,28,VALID,0.715234,
2011-05-28, 00:45:05,VALID,916.293,VALID,0,VALID,97.069,VALID,0,VALID,20.7739,VALID,28,VALID,0.333984,
2011-05-28, 00:46:05,VALID,916.302,VALID,0,VALID,97.0613,VALID,0,VALID,20.795,VALID,28,VALID,0,
2011-05-28, 00:47:05,VALID,916.27,VALID,0,VALID,97.0613,VALID,0,VALID,20.7349,VALID,28,VALID,0.684766,
2011-05-28, 00:48:05,VALID,916.289,VALID,0,VALID,97.0613,VALID,0,VALID,20.756,VALID,28,VALID,0.428516,
2011-05-28, 00:49:05,VALID,916.288,VALID,0,VALID,97.0613,VALID,0,VALID,20.7544,VALID,28,VALID,0,
2011-05-28, 00:50:05,VALID,916.285,VALID,0,VALID,97.0766,VALID,0,VALID,20.7544,VALID,28,VALID,0,
2011-05-28, 00:51:05,VALID,916.283,VALID,0,VALID,97.0842,VALID,0,VALID,20.7544,VALID,28,VALID,0.05625,
2011-05-28, 00:52:05,VALID,916.29,VALID,0,VALID,97.0918,VALID,0,VALID,20.7739,VALID,28,VALID,0.466016,
2011-05-28, 00:53:05,VALID,916.273,VALID,0,VALID,97.0842,VALID,0,VALID,20.7544,VALID,28,VALID,0.0195313,
2011-05-28, 00:54:05,VALID,916.252,VALID,0,VALID,97.1071,VALID,0,VALID,20.7544,VALID,28,VALID,0,
2011-05-28, 00:55:05,VALID,916.235,VALID,0,VALID,97.0918,VALID,0,VALID,20.7365,VALID,28,VALID,0.205469,
2011-05-28, 00:56:05,VALID,916.208,VALID,0,VALID,97.0766,VALID,0,VALID,20.7154,VALID,28,VALID,0,
2011-05-28, 00:57:05,VALID,916.198,VALID,0,VALID,97.0918,VALID,0,VALID,20.7349,VALID,28,VALID,0,
2011-05-28, 00:58:05,VALID,916.159,VALID,0,VALID,97.0994,VALID,0,VALID,20.7544,VALID,28,VALID,0.138281,
2011-05-28, 00:59:05,VALID,916.177,VALID,0,VALID,97.1147,VALID,0,VALID,20.7739,VALID,28,VALID,0,
2011-05-28, 01:00:05,VALID,916.141,VALID,0,VALID,97.1223,VALID,0.107441,VALID,20.7934,VALID,28,VALID,0.452344,
2011-05-28, 01:01:05,VALID,916.128,VALID,0,VALID,97.1223,VALID,0,VALID,20.8129,VALID,28,VALID,0,
2011-05-28, 01:02:05,VALID,916.137,VALID,0,VALID,97.1071,VALID,0,VALID,20.7934,VALID,28,VALID,0,
2011-05-28, 01:03:05,VALID,916.153,VALID,0,VALID,97.1223,VALID,0,VALID,20.8535,VALID,28,VALID,0,
2011-05-28, 01:04:05,VALID,916.16,VALID,0,VALID,97.1147,VALID,0,VALID,20.873,VALID,28,VALID,0.566406,
2011-05-28, 01:05:05,VALID,916.14,VALID,0,VALID,97.1147,VALID,0,VALID,20.8519,VALID,28,VALID,0.653125,
2011-05-28, 01:06:05,VALID,916.141,VALID,0,VALID,97.1299,VALID,0,VALID,20.8519,VALID,299,VALID,0.473828,
2011-05-28, 01:07:05,VALID,916.116,VALID,0,VALID,97.1299,VALID,0,VALID,20.873,VALID,21,VALID,1.13125,
2011-05-28, 01:08:05,VALID,916.122,VALID,0,VALID,97.1299,VALID,0,VALID,20.8324,VALID,21,VALID,1.28203,
2011-05-28, 01:09:05,VALID,916.109,VALID,0,VALID,97.1299,VALID,0,VALID,20.8714,VALID,22,VALID,0.427734,
2011-05-28, 01:10:05,VALID,916.097,VALID,0,VALID,97.1299,VALID,0,VALID,20.8714,VALID,21,VALID,0.184375,
2011-05-28, 01:11:05,VALID,916.101,VALID,0,VALID,97.1299,VALID,0,VALID,20.9105,VALID,21,VALID,0,
2011-05-28, 01:12:05,VALID,916.083,VALID,0,VALID,97.1376,VALID,0,VALID,20.891,VALID,21,VALID,0.133203,
2011-05-28, 01:13:05,VALID,916.069,VALID,0,VALID,97.1299,VALID,0,VALID,20.891,VALID,21,VALID,0.0449219,
2011-05-28, 01:14:05,VALID,916.056,VALID,0,VALID,97.1452,VALID,0,VALID,20.891,VALID,21,VALID,0,
2011-05-28, 01:15:05,VALID,916.039,VALID,0,VALID,97.1299,VALID,0,VALID,20.891,VALID,21,VALID,0,
2011-05-28, 01:16:05,VALID,916.067,VALID,0,VALID,97.1452,VALID,0,VALID,20.9105,VALID,21,VALID,0.363281,
2011-05-28, 01:17:05,VALID,916.044,VALID,0,VALID,97.1452,VALID,0.107441,VALID,20.9089,VALID,21,VALID,0.10625,
2011-05-28, 01:18:05,VALID,916.052,VALID,0,VALID,97.1452,VALID,0,VALID,20.8894,VALID,21,VALID,0.0359375,
2011-05-28, 01:19:05,VALID,916.043,VALID,0,VALID,97.1299,VALID,0,VALID,20.9511,VALID,21,VALID,0.646875,
2011-05-28, 01:20:05,VALID,916.031,VALID,0,VALID,97.1528,VALID,0,VALID,20.9511,VALID,21,VALID,0.363672,
2011-05-28, 01:21:05,VALID,915.991,VALID,0,VALID,97.1376,VALID,0,VALID,20.9105,VALID,21,VALID,0.597266,
2011-05-28, 01:22:05,VALID,916.004,VALID,0,VALID,97.1376,VALID,0,VALID,20.891,VALID,21,VALID,0.541016,
2011-05-28, 01:23:05,VALID,915.975,VALID,0,VALID,97.1299,VALID,0,VALID,20.8714,VALID,21,VALID,0.203516,
2011-05-28, 01:24:05,VALID,915.973,VALID,0,VALID,97.1299,VALID,0,VALID,20.8519,VALID,22,VALID,0.517578,
2011-05-28, 01:25:05,VALID,915.97,VALID,0,VALID,97.1452,VALID,0,VALID,20.8925,VALID,22,VALID,0.570313,
2011-05-28, 01:26:05,VALID,915.964,VALID,0,VALID,97.1452,VALID,0.107441,VALID,20.8519,VALID,22,VALID,0.275781,
2011-05-28, 01:27:05,VALID,915.945,VALID,0,VALID,97.1452,VALID,0,VALID,20.891,VALID,21,VALID,0.275391,
2011-05-28, 01:28:05,VALID,915.912,VALID,0,VALID,97.1604,VALID,0,VALID,20.9105,VALID,21,VALID,0,
2011-05-28, 01:29:05,VALID,915.918,VALID,0,VALID,97.1452,VALID,0,VALID,20.9105,VALID,21,VALID,0.000390625,
2011-05-28, 01:30:05,VALID,915.922,VALID,0,VALID,97.1528,VALID,0,VALID,20.93,VALID,21,VALID,0.144531,
2011-05-28, 01:31:05,VALID,915.891,VALID,0,VALID,97.1528,VALID,0,VALID,20.9511,VALID,21,VALID,0.395703,
2011-05-28, 01:32:05,VALID,915.869,VALID,0,VALID,97.1604,VALID,0,VALID,20.9495,VALID,22,VALID,0.282813,
2011-05-28, 01:33:05,VALID,915.881,VALID,0,VALID,97.1604,VALID,0,VALID,20.9495,VALID,21,VALID,0.0105469,
2011-05-28, 01:34:05,VALID,915.875,VALID,0,VALID,97.1681,VALID,0,VALID,20.9495,VALID,22,VALID,0,
2011-05-28, 01:35:05,VALID,915.849,VALID,0,VALID,97.1528,VALID,0,VALID,20.9105,VALID,21,VALID,0.0621094,
2011-05-28, 01:36:05,VALID,915.82,VALID,0,VALID,97.1604,VALID,0,VALID,20.891,VALID,21,VALID,0.184375,
2011-05-28, 01:37:05,VALID,915.795,VALID,0,VALID,97.1681,VALID,0,VALID,20.891,VALID,21,VALID,0.382031,
2011-05-28, 01:38:05,VALID,915.784,VALID,0,VALID,97.1604,VALID,0,VALID,20.9105,VALID,21,VALID,0.172266,
2011-05-28, 01:39:05,VALID,915.78,VALID,0,VALID,97.1681,VALID,0.107441,VALID,20.93,VALID,22,VALID,0.377344,
2011-05-28, 01:40:05,VALID,915.753,VALID,0,VALID,97.1604,VALID,0.107441,VALID,20.9511,VALID,22,VALID,0.328125,
2011-05-28, 01:41:05,VALID,915.783,VALID,0,VALID,97.1452,VALID,0,VALID,20.9105,VALID,21,VALID,0,
2011-05-28, 01:42:05,VALID,915.738,VALID,0,VALID,97.1528,VALID,0,VALID,20.93,VALID,22,VALID,0.542578,
2011-05-28, 01:43:05,VALID,915.768,VALID,0,VALID,97.1681,VALID,0,VALID,20.9495,VALID,21,VALID,0.626172,
2011-05-28, 01:44:05,VALID,915.723,VALID,0,VALID,97.1604,VALID,0,VALID,20.9495,VALID,21,VALID,0.946875,
2011-05-28, 01:45:05,VALID,915.735,VALID,0,VALID,97.1604,VALID,0,VALID,20.9316,VALID,21,VALID,0.408203,
2011-05-28, 01:46:05,VALID,915.733,VALID,0,VALID,97.1452,VALID,0,VALID,20.9316,VALID,21,VALID,0.417188,
2011-05-28, 01:47:05,VALID,915.733,VALID,0,VALID,97.1528,VALID,0,VALID,20.891,VALID,21,VALID,0.710938,
2011-05-28, 01:48:05,VALID,915.702,VALID,0,VALID,97.1452,VALID,0,VALID,20.9316,VALID,22,VALID,0.700781,
2011-05-28, 01:49:05,VALID,915.693,VALID,0,VALID,97.1604,VALID,0,VALID,20.93,VALID,21,VALID,0.989844,
2011-05-28, 01:50:05,VALID,915.675,VALID,0,VALID,97.1604,VALID,0,VALID,20.9706,VALID,21,VALID,0.683594,
2011-05-28, 01:51:05,VALID,915.69,VALID,0,VALID,97.1528,VALID,0,VALID,20.9706,VALID,21,VALID,0.705078,
2011-05-28, 01:52:05,VALID,915.699,VALID,0,VALID,97.1681,VALID,0,VALID,20.9495,VALID,21,VALID,0.267578,
2011-05-28, 01:53:05,VALID,915.726,VALID,0,VALID,97.1604,VALID,0,VALID,20.9706,VALID,21,VALID,0.254297,
2011-05-28, 01:54:05,VALID,915.702,VALID,0,VALID,97.1528,VALID,0,VALID,20.9901,VALID,21,VALID,0.734766,
2011-05-28, 01:55:04,VALID,915.71,VALID,0,VALID,97.1528,VALID,0,VALID,20.9901,VALID,21,VALID,0.417188,
2011-05-28, 01:56:04,VALID,915.732,VALID,0,VALID,97.1528,VALID,0,VALID,21.0096,VALID,21,VALID,0.132031,
2011-05-28, 01:57:04,VALID,915.723,VALID,0,VALID,97.1604,VALID,0,VALID,21.0096,VALID,21,VALID,0,
2011-05-28, 01:58:04,VALID,915.737,VALID,0,VALID,97.1681,VALID,0,VALID,20.9901,VALID,21,VALID,0.189063,
2011-05-28, 01:59:04,VALID,915.729,VALID,0,VALID,97.1833,VALID,0,VALID,20.9901,VALID,21,VALID,0.557422,
2011-05-28, 02:00:04,VALID,915.731,VALID,0,VALID,97.1376,VALID,0,VALID,20.9901,VALID,22,VALID,0.739453,
2011-05-28, 02:01:04,VALID,915.749,VALID,0,VALID,97.1528,VALID,0,VALID,21.008,VALID,21,VALID,0.0394531,
2011-05-28, 02:02:04,VALID,915.732,VALID,0,VALID,97.1528,VALID,0,VALID,21.008,VALID,21,VALID,0.616406,
2011-05-28, 02:03:04,VALID,915.751,VALID,0,VALID,97.1604,VALID,0,VALID,21.0291,VALID,21,VALID,0.280078,
2011-05-28, 02:04:04,VALID,915.733,VALID,0,VALID,97.1604,VALID,0,VALID,21.0096,VALID,21,VALID,0.422266,
2011-05-28, 02:05:04,VALID,915.747,VALID,0,VALID,97.1528,VALID,0,VALID,20.9495,VALID,21,VALID,1.05703,
2011-05-28, 02:06:04,VALID,915.772,VALID,0,VALID,97.1604,VALID,0,VALID,20.969,VALID,21,VALID,0.874609,
2011-05-28, 02:07:04,VALID,915.776,VALID,0,VALID,97.1528,VALID,0,VALID,20.9901,VALID,21,VALID,1.2832,
2011-05-28, 02:08:04,VALID,915.795,VALID,0,VALID,97.1604,VALID,0,VALID,20.9479,VALID,9,VALID,1.23984,
2011-05-28, 02:09:04,VALID,915.8,VALID,0,VALID,97.1376,VALID,0,VALID,20.9706,VALID,40,VALID,0.984766,
2011-05-28, 02:10:04,VALID,915.791,VALID,0,VALID,97.1681,VALID,0,VALID,21.0112,VALID,40,VALID,0.446094,
2011-05-28, 02:11:04,VALID,915.801,VALID,0,VALID,97.1452,VALID,0,VALID,20.9901,VALID,40,VALID,0.892187,
2011-05-28, 02:12:04,VALID,915.779,VALID,0,VALID,97.1757,VALID,0,VALID,20.9901,VALID,40,VALID,0.00234375,
2011-05-28, 02:13:04,VALID,915.786,VALID,0,VALID,97.1528,VALID,0,VALID,20.969,VALID,40,VALID,1.25234,
2011-05-28, 02:14:04,VALID,915.751,VALID,0,VALID,97.1376,VALID,0,VALID,20.9901,VALID,39,VALID,1.16367,
2011-05-28, 02:15:04,VALID,915.763,VALID,0,VALID,97.1452,VALID,0,VALID,20.9706,VALID,39,VALID,1.03867,
2011-05-28, 02:16:04,VALID,915.769,VALID,0,VALID,97.1299,VALID,0,VALID,20.9706,VALID,39,VALID,0.972266,
2011-05-28, 02:17:04,VALID,915.754,VALID,0,VALID,97.1452,VALID,0,VALID,20.9495,VALID,24,VALID,1.39727,
2011-05-28, 02:18:04,VALID,915.766,VALID,0,VALID,97.1604,VALID,0,VALID,20.9722,VALID,14,VALID,0.603906,
2011-05-28, 02:19:04,VALID,915.772,VALID,0,VALID,97.1223,VALID,0,VALID,20.93,VALID,14,VALID,0.437891,
2011-05-28, 02:20:04,VALID,915.759,VALID,0,VALID,97.1223,VALID,0,VALID,20.93,VALID,14,VALID,0.162109,
2011-05-28, 02:21:04,VALID,915.781,VALID,0,VALID,97.1376,VALID,0,VALID,20.9706,VALID,14,VALID,0,
2011-05-28, 02:22:04,VALID,915.771,VALID,0,VALID,97.1452,VALID,0,VALID,20.93,VALID,14,VALID,0.352344,
2011-05-28, 02:23:04,VALID,915.759,VALID,0,VALID,97.1452,VALID,0,VALID,20.9105,VALID,14,VALID,0.0382813,
2011-05-28, 02:24:04,VALID,915.765,VALID,0,VALID,97.1299,VALID,0,VALID,20.9316,VALID,14,VALID,0,
2011-05-28, 02:25:04,VALID,915.766,VALID,0,VALID,97.1376,VALID,0,VALID,20.912,VALID,14,VALID,0.383984,
2011-05-28, 02:26:04,VALID,915.734,VALID,0,VALID,97.1376,VALID,0,VALID,20.9105,VALID,14,VALID,0.625781,
2011-05-28, 02:27:04,VALID,915.763,VALID,0,VALID,97.1299,VALID,0,VALID,20.912,VALID,14,VALID,0.0515625,
2011-05-28, 02:28:04,VALID,915.752,VALID,0,VALID,97.1376,VALID,0,VALID,20.8699,VALID,14,VALID,0,
2011-05-28, 02:29:04,VALID,915.738,VALID,0,VALID,97.1147,VALID,0,VALID,20.8714,VALID,14,VALID,0.0121094,
2011-05-28, 02:30:04,VALID,915.768,VALID,0,VALID,97.0994,VALID,0,VALID,20.891,VALID,14,VALID,0.173828,
2011-05-28, 02:31:04,VALID,915.77,VALID,0,VALID,97.1223,VALID,0,VALID,20.912,VALID,14,VALID,0.579687,
2011-05-28, 02:32:04,VALID,915.788,VALID,0,VALID,97.1299,VALID,0,VALID,20.891,VALID,14,VALID,0.651953,
2011-05-28, 02:33:04,VALID,915.755,VALID,0,VALID,97.1299,VALID,0,VALID,20.912,VALID,14,VALID,0.709766,
2011-05-28, 02:34:04,VALID,915.766,VALID,0,VALID,97.1223,VALID,0,VALID,20.912,VALID,14,VALID,0.893359,
2011-05-28, 02:35:04,VALID,915.755,VALID,0,VALID,97.0918,VALID,0,VALID,20.8309,VALID,14,VALID,0.518359,
2011-05-28, 02:36:04,VALID,915.773,VALID,0,VALID,97.0994,VALID,0,VALID,20.8519,VALID,14,VALID,0.242188,
2011-05-28, 02:37:04,VALID,915.749,VALID,0,VALID,97.0918,VALID,0,VALID,20.8714,VALID,14,VALID,0.065625,
2011-05-28, 02:38:04,VALID,915.696,VALID,0,VALID,97.0918,VALID,0,VALID,20.873,VALID,14,VALID,0.283203,
2011-05-28, 02:39:04,VALID,915.669,VALID,0,VALID,97.0994,VALID,0,VALID,20.8714,VALID,14,VALID,0.110937,
2011-05-28, 02:40:04,VALID,915.65,VALID,0,VALID,97.0918,VALID,0,VALID,20.8714,VALID,14,VALID,0.274219,
2011-05-28, 02:41:04,VALID,915.597,VALID,0,VALID,97.0766,VALID,0,VALID,20.873,VALID,14,VALID,0.83125,
2011-05-28, 02:42:04,VALID,915.583,VALID,0,VALID,97.0842,VALID,0,VALID,20.8324,VALID,14,VALID,0.739062,
2011-05-28, 02:43:04,VALID,915.547,VALID,0,VALID,97.0842,VALID,0,VALID,20.8762,VALID,14,VALID,0.588672,
2011-05-28, 02:44:04,VALID,915.528,VALID,0,VALID,97.0842,VALID,0.107441,VALID,20.8324,VALID,14,VALID,0.864453,
2011-05-28, 02:45:04,VALID,915.55,VALID,0,VALID,97.0613,VALID,0,VALID,20.8535,VALID,14,VALID,0.836328,
2011-05-28, 02:46:04,VALID,915.535,VALID,0,VALID,97.0842,VALID,0,VALID,20.8519,VALID,14,VALID,0.984766,
2011-05-28, 02:47:04,VALID,915.541,VALID,0,VALID,97.0918,VALID,0,VALID,20.873,VALID,14,VALID,0.839063,
2011-05-28, 02:48:04,VALID,915.5,VALID,0,VALID,97.0994,VALID,0,VALID,20.8519,VALID,14,VALID,1.01133,
2011-05-28, 02:49:04,VALID,915.518,VALID,0,VALID,97.069,VALID,0,VALID,20.873,VALID,14,VALID,1.18242,
2011-05-28, 02:50:04,VALID,915.51,VALID,0,VALID,97.0613,VALID,0,VALID,20.8324,VALID,26,VALID,1.18867,
2011-05-28, 02:51:04,VALID,915.505,VALID,0,VALID,97.0766,VALID,0,VALID,20.8129,VALID,26,VALID,1.23711,
2011-05-28, 02:52:04,VALID,915.498,VALID,0,VALID,97.0537,VALID,0,VALID,20.7934,VALID,26,VALID,0.866406,
2011-05-28, 02:53:04,VALID,915.49,VALID,0,VALID,97.0766,VALID,0.107441,VALID,20.7739,VALID,26,VALID,0.926562,
2011-05-28, 02:54:04,VALID,915.503,VALID,0,VALID,97.0613,VALID,0,VALID,20.7333,VALID,26,VALID,0.896094,
2011-05-28, 02:55:04,VALID,915.491,VALID,0,VALID,97.069,VALID,0,VALID,20.7544,VALID,26,VALID,0.555859,
2011-05-28, 02:56:04,VALID,915.496,VALID,0,VALID,97.069,VALID,0,VALID,20.795,VALID,26,VALID,0.583594,
2011-05-28, 02:57:04,VALID,915.497,VALID,0,VALID,97.0613,VALID,0,VALID,20.8145,VALID,26,VALID,0.117188,
2011-05-28, 02:58:04,VALID,915.467,VALID,0,VALID,97.0842,VALID,0,VALID,20.8129,VALID,26,VALID,0.762109,
2011-05-28, 02:59:04,VALID,915.455,VALID,0,VALID,97.0918,VALID,0,VALID,20.834,VALID,26,VALID,0.855078,
2011-05-28, 03:00:04,VALID,915.462,VALID,0,VALID,97.0842,VALID,0,VALID,20.8535,VALID,26,VALID,0.342578,
2011-05-28, 03:01:04,VALID,915.449,VALID,0,VALID,97.0842,VALID,0,VALID,20.873,VALID,26,VALID,0,
2011-05-28, 03:02:04,VALID,915.51,VALID,0,VALID,97.0613,VALID,0,VALID,20.8519,VALID,26,VALID,0.4625,
2011-05-28, 03:03:04,VALID,915.511,VALID,0,VALID,97.0766,VALID,0,VALID,20.8925,VALID,26,VALID,0.0773437,
2011-05-28, 03:04:04,VALID,915.515,VALID,0,VALID,97.0766,VALID,0,VALID,20.8714,VALID,26,VALID,0.548437,
2011-05-28, 03:05:04,VALID,915.514,VALID,0,VALID,97.0918,VALID,0,VALID,20.8714,VALID,26,VALID,0.916797,
2011-05-28, 03:06:04,VALID,915.532,VALID,0,VALID,97.0842,VALID,0,VALID,20.8925,VALID,26,VALID,0.88125,
2011-05-28, 03:07:04,VALID,915.56,VALID,0,VALID,97.0842,VALID,0,VALID,20.912,VALID,26,VALID,0.182812,
2011-05-28, 03:08:04,VALID,915.554,VALID,0,VALID,97.0842,VALID,0,VALID,20.9105,VALID,26,VALID,0.3875,
2011-05-28, 03:09:04,VALID,915.578,VALID,0,VALID,97.0842,VALID,0,VALID,20.9105,VALID,26,VALID,0.314453,
2011-05-28, 03:10:04,VALID,915.566,VALID,0,VALID,97.0842,VALID,0,VALID,20.891,VALID,26,VALID,0.692578,
2011-05-28, 03:11:04,VALID,915.579,VALID,0,VALID,97.0994,VALID,0,VALID,20.891,VALID,26,VALID,0.401953,
2011-05-28, 03:12:04,VALID,915.6,VALID,0,VALID,97.0842,VALID,0,VALID,20.891,VALID,26,VALID,0.559766,
2011-05-28, 03:13:04,VALID,915.598,VALID,0,VALID,97.0918,VALID,0,VALID,20.9105,VALID,26,VALID,1.075,
2011-05-28, 03:14:04,VALID,915.607,VALID,0,VALID,97.0842,VALID,0,VALID,20.8925,VALID,26,VALID,0.355859,
2011-05-28, 03:15:04,VALID,915.593,VALID,0,VALID,97.0766,VALID,0,VALID,20.8925,VALID,26,VALID,0.919141,
2011-05-28, 03:16:04,VALID,915.663,VALID,0,VALID,97.0766,VALID,0,VALID,20.8925,VALID,26,VALID,0.663672,
2011-05-28, 03:17:04,VALID,915.668,VALID,0,VALID,97.0842,VALID,0,VALID,20.8519,VALID,26,VALID,0.171875,
2011-05-28, 03:18:04,VALID,915.692,VALID,0,VALID,97.0766,VALID,0,VALID,20.8324,VALID,251,VALID,0.848828,
2011-05-28, 03:19:04,VALID,915.678,VALID,0,VALID,97.069,VALID,0,VALID,20.8324,VALID,251,VALID,0.561719,
2011-05-28, 03:20:04,VALID,915.677,VALID,0,VALID,97.0842,VALID,0,VALID,20.8519,VALID,44,VALID,0.925391,
2011-05-28, 03:21:04,VALID,915.672,VALID,0,VALID,97.0994,VALID,0,VALID,20.873,VALID,280,VALID,0.723437,
2011-05-28, 03:22:04,VALID,915.679,VALID,0,VALID,97.0613,VALID,0,VALID,20.8519,VALID,280,VALID,0.460547,
2011-05-28, 03:23:04,VALID,915.709,VALID,0,VALID,97.0766,VALID,0,VALID,20.8519,VALID,280,VALID,0.305469,
2011-05-28, 03:24:04,VALID,915.708,VALID,0,VALID,97.0994,VALID,0,VALID,20.873,VALID,280,VALID,0,
2011-05-28, 03:25:04,VALID,915.719,VALID,0,VALID,97.0842,VALID,0,VALID,20.8324,VALID,280,VALID,0.1875,
2011-05-28, 03:26:04,VALID,915.752,VALID,0,VALID,97.0918,VALID,0,VALID,20.8519,VALID,280,VALID,0.175781,
2011-05-28, 03:27:04,VALID,915.756,VALID,0,VALID,97.0766,VALID,0,VALID,20.8714,VALID,281,VALID,0.114453,
2011-05-28, 03:28:04,VALID,915.727,VALID,0,VALID,97.0766,VALID,0,VALID,20.8324,VALID,80,VALID,1.07734,
2011-05-28, 03:29:04,VALID,915.759,VALID,0,VALID,97.0918,VALID,0,VALID,20.8129,VALID,77,VALID,0.307031,
2011-05-28, 03:30:04,VALID,915.779,VALID,0,VALID,97.0918,VALID,0,VALID,20.834,VALID,77,VALID,0.656641,
2011-05-28, 03:31:04,VALID,915.786,VALID,0,VALID,97.0994,VALID,0,VALID,20.8129,VALID,77,VALID,0,
2011-05-28, 03:32:04,VALID,915.757,VALID,0,VALID,97.0918,VALID,0,VALID,20.8324,VALID,77,VALID,0.357422,
2011-05-28, 03:33:04,VALID,915.731,VALID,0,VALID,97.0918,VALID,0,VALID,20.8129,VALID,77,VALID,0.614453,
2011-05-28, 03:34:04,VALID,915.746,VALID,0,VALID,97.0918,VALID,0,VALID,20.8129,VALID,77,VALID,0.857031,
2011-05-28, 03:35:04,VALID,915.744,VALID,0,VALID,97.0994,VALID,0,VALID,20.8324,VALID,77,VALID,0.275781,
2011-05-28, 03:36:04,VALID,915.73,VALID,0,VALID,97.0842,VALID,0,VALID,20.8129,VALID,77,VALID,0.207813,
2011-05-28, 03:37:04,VALID,915.764,VALID,0,VALID,97.0842,VALID,0,VALID,20.7934,VALID,69,VALID,1.22539,
2011-05-28, 03:38:04,VALID,915.774,VALID,0,VALID,97.0994,VALID,0,VALID,20.7934,VALID,49,VALID,0.975781,
2011-05-28, 03:39:04,VALID,915.769,VALID,0,VALID,97.0842,VALID,0,VALID,20.8129,VALID,49,VALID,0.445703,
2011-05-28, 03:40:04,VALID,915.786,VALID,0,VALID,97.0918,VALID,0,VALID,20.8129,VALID,49,VALID,0.975781,
2011-05-28, 03:41:04,VALID,915.788,VALID,0,VALID,97.0842,VALID,0,VALID,20.8129,VALID,49,VALID,0.2375,
2011-05-28, 03:42:04,VALID,915.804,VALID,0,VALID,97.0766,VALID,0,VALID,20.8324,VALID,35,VALID,0.912891,
2011-05-28, 03:43:04,VALID,915.816,VALID,0,VALID,97.0766,VALID,0,VALID,20.7739,VALID,22,VALID,1.61602,
2011-05-28, 03:44:04,VALID,915.785,VALID,0,VALID,97.0994,VALID,0,VALID,20.7349,VALID,40,VALID,1.08125,
2011-05-28, 03:45:04,VALID,915.795,VALID,0,VALID,97.0842,VALID,0,VALID,20.7349,VALID,40,VALID,0.867578,
2011-05-28, 03:46:04,VALID,915.828,VALID,0,VALID,97.0918,VALID,0,VALID,20.7544,VALID,40,VALID,0.232031,
2011-05-28, 03:47:04,VALID,915.822,VALID,0,VALID,97.0613,VALID,0,VALID,20.7544,VALID,40,VALID,0.227734,